Time,TemperatureF,DewpointF,PressureIn,WindDirection,WindDirectionDegrees,WindSpeedMPH,WindSpeedGustMPH,Humidity,HourlyPrecipIn,Conditions,Clouds,dailyrainin,SoftwareType,DateUTC
2013-04-22 00:01:00,36.9,-8.0,30.83,NW,308,4.0,4.0,14,0.00,,,0.00,meteohub,2013-04-22 04:01:00,
2013-04-22 00:02:00,36.7,-8.1,30.83,NW,308,3.0,4.0,14,0.00,,,0.00,meteohub,2013-04-22 04:02:00,
2013-04-22 00:04:00,36.7,-8.1,30.83,NW,307,4.0,4.0,14,0.00,,,0.00,meteohub,2013-04-22 04:04:00,
2013-04-22 00:09:00,36.5,-8.1,30.83,NW,305,4.0,4.0,14,0.00,,,0.00,meteohub,2013-04-22 04:09:00,
2013-04-22 00:14:00,36.3,-8.3,30.83,NW,308,6.0,6.0,14,0.00,,,0.00,meteohub,2013-04-22 04:14:00,
2013-04-22 00:19:00,36.3,-8.3,30.83,NW,312,4.0,5.0,14,0.00,,,0.00,meteohub,2013-04-22 04:19:00,
2013-04-22 00:25:00,36.3,-8.3,30.83,NW,305,4.0,5.0,14,0.00,,,0.00,meteohub,2013-04-22 04:25:00,
2013-04-22 00:30:00,36.3,-8.3,30.83,WNW,301,4.0,6.0,14,0.00,,,0.00,meteohub,2013-04-22 04:30:00,
2013-04-22 00:35:00,36.5,-8.1,30.83,NW,313,4.0,6.0,14,0.00,,,0.00,meteohub,2013-04-22 04:35:00,
2013-04-22 00:41:00,36.3,-8.3,30.83,NW,306,4.0,6.0,14,0.00,,,0.00,meteohub,2013-04-22 04:41:00,
2013-04-22 00:46:00,36.3,-8.3,30.83,NW,306,3.0,6.0,14,0.00,,,0.00,meteohub,2013-04-22 04:46:00,
2013-04-22 00:51:00,36.3,-4.4,30.83,NW,307,4.0,5.0,17,0.00,,,0.00,meteohub,2013-04-22 04:51:00,
2013-04-22 00:56:00,36.3,-4.4,30.83,WNW,303,4.0,5.0,17,0.00,,,0.00,meteohub,2013-04-22 04:56:00,
2013-04-22 01:02:00,36.3,-4.4,30.86,NW,312,5.0,5.0,17,0.00,,,0.00,meteohub,2013-04-22 05:02:00,
2013-04-22 01:07:00,36.1,-4.5,30.86,WNW,298,4.0,5.0,17,0.00,,,0.00,meteohub,2013-04-22 05:07:00,
2013-04-22 01:12:00,36.1,-4.5,30.86,NW,304,5.0,5.0,17,0.00,,,0.00,meteohub,2013-04-22 05:12:00,
2013-04-22 01:17:00,36.1,-4.5,30.86,NW,309,5.0,6.0,17,0.00,,,0.00,meteohub,2013-04-22 05:17:00,
2013-04-22 01:22:00,36.1,-4.5,30.86,WNW,298,4.0,6.0,17,0.00,,,0.00,meteohub,2013-04-22 05:22:00,
2013-04-22 01:27:00,36.1,-4.5,30.86,NW,311,6.0,6.0,17,0.00,,,0.00,meteohub,2013-04-22 05:27:00,
2013-04-22 01:33:00,36.0,-2.4,30.86,WNW,302,4.0,6.0,19,0.00,,,0.00,meteohub,2013-04-22 05:33:00,
2013-04-22 01:38:00,36.0,-2.4,30.86,NW,312,6.0,6.0,19,0.00,,,0.00,meteohub,2013-04-22 05:38:00,
2013-04-22 01:43:00,35.8,2.5,30.86,NW,311,6.0,6.0,24,0.00,,,0.00,meteohub,2013-04-22 05:43:00,
2013-04-22 01:48:00,36.0,2.7,30.86,NW,313,5.0,8.0,24,0.00,,,0.00,meteohub,2013-04-22 05:48:00,
2013-04-22 01:54:00,36.1,5.4,30.86,NW,308,5.0,8.0,27,0.00,,,0.00,meteohub,2013-04-22 05:54:00,
2013-04-22 01:59:00,36.1,5.4,30.86,NW,313,6.0,8.0,27,0.00,,,0.00,meteohub,2013-04-22 05:59:00,
2013-04-22 02:05:00,36.0,7.5,30.86,NW,310,5.0,8.0,30,0.00,,,0.00,meteohub,2013-04-22 06:05:00,
2013-04-22 02:10:00,35.8,7.3,30.86,NW,313,6.0,7.0,30,0.00,,,0.00,meteohub,2013-04-22 06:10:00,
2013-04-22 02:15:00,36.0,7.5,30.86,NW,310,6.0,7.0,30,0.00,,,0.00,meteohub,2013-04-22 06:15:00,
2013-04-22 02:20:00,36.0,8.2,30.86,NW,309,5.0,7.0,31,0.00,,,0.00,meteohub,2013-04-22 06:20:00,
2013-04-22 02:26:00,35.8,7.3,30.86,NW,308,5.0,6.0,30,0.00,,,0.00,meteohub,2013-04-22 06:26:00,
2013-04-22 02:31:00,35.8,7.3,30.89,NW,312,6.0,6.0,30,0.00,,,0.00,meteohub,2013-04-22 06:31:00,
2013-04-22 02:36:00,35.8,8.1,30.89,NW,311,4.0,6.0,31,0.00,,,0.00,meteohub,2013-04-22 06:36:00,
2013-04-22 02:41:00,35.8,8.1,30.89,NW,313,5.0,6.0,31,0.00,,,0.00,meteohub,2013-04-22 06:41:00,
2013-04-22 02:47:00,35.6,7.9,30.89,NW,312,4.0,6.0,31,0.00,,,0.00,meteohub,2013-04-22 06:47:00,
2013-04-22 02:52:00,35.6,7.9,30.89,NW,310,5.0,6.0,31,0.00,,,0.00,meteohub,2013-04-22 06:52:00,
2013-04-22 02:57:00,35.4,7.7,30.89,NW,312,4.0,6.0,31,0.00,,,0.00,meteohub,2013-04-22 06:57:00,
2013-04-22 03:02:00,35.1,7.5,30.89,NW,310,5.0,6.0,31,0.00,,,0.00,meteohub,2013-04-22 07:02:00,
2013-04-22 03:07:00,34.9,7.3,30.89,NW,311,4.0,6.0,31,0.00,,,0.00,meteohub,2013-04-22 07:07:00,
2013-04-22 03:12:00,34.9,8.1,30.89,NW,312,5.0,6.0,32,0.00,,,0.00,meteohub,2013-04-22 07:12:00,
2013-04-22 03:17:00,34.9,8.1,30.92,NW,311,5.0,6.0,32,0.00,,,0.00,meteohub,2013-04-22 07:17:00,
2013-04-22 03:22:00,34.9,8.1,30.92,NW,310,5.0,6.0,32,0.00,,,0.00,meteohub,2013-04-22 07:22:00,
2013-04-22 03:27:00,34.9,8.1,30.92,NW,312,5.0,6.0,32,0.00,,,0.00,meteohub,2013-04-22 07:27:00,
2013-04-22 03:32:00,34.9,8.1,30.92,NW,314,5.0,6.0,32,0.00,,,0.00,meteohub,2013-04-22 07:32:00,
2013-04-22 03:37:00,34.9,8.1,30.92,NW,313,4.0,6.0,32,0.00,,,0.00,meteohub,2013-04-22 07:37:00,
2013-04-22 03:42:00,34.9,8.6,30.92,NW,313,5.0,5.0,33,0.00,,,0.00,meteohub,2013-04-22 07:42:00,
2013-04-22 03:47:00,34.7,9.1,30.92,NW,316,5.0,6.0,34,0.00,,,0.00,meteohub,2013-04-22 07:47:00,
2013-04-22 03:52:00,34.9,9.3,30.92,NW,314,6.0,6.0,34,0.00,,,0.00,meteohub,2013-04-22 07:52:00,
2013-04-22 03:58:00,35.1,11.5,30.92,NW,311,6.0,6.0,37,0.00,,,0.00,meteohub,2013-04-22 07:58:00,
2013-04-22 04:03:00,35.4,12.4,30.92,NW,314,6.0,6.0,38,0.00,,,0.00,meteohub,2013-04-22 08:03:00,
2013-04-22 04:08:00,35.4,12.9,30.92,NW,307,6.0,6.0,39,0.00,,,0.00,meteohub,2013-04-22 08:08:00,
2013-04-22 04:14:00,35.6,12.6,30.92,NW,318,5.0,6.0,38,0.00,,,0.00,meteohub,2013-04-22 08:14:00,
2013-04-22 04:19:00,35.8,13.8,30.95,NW,309,6.0,6.0,40,0.00,,,0.00,meteohub,2013-04-22 08:19:00,
2013-04-22 04:24:00,36.1,14.2,30.95,NW,308,6.0,6.0,40,0.00,,,0.00,meteohub,2013-04-22 08:24:00,
2013-04-22 04:29:00,36.1,14.2,30.95,NW,306,8.0,8.0,40,0.00,,,0.00,meteohub,2013-04-22 08:29:00,
2013-04-22 04:34:00,36.1,14.2,30.95,WNW,302,6.0,8.0,40,0.00,,,0.00,meteohub,2013-04-22 08:34:00,
2013-04-22 04:40:00,36.1,14.2,30.95,WNW,303,5.0,8.0,40,0.00,,,0.00,meteohub,2013-04-22 08:40:00,
2013-04-22 04:45:00,36.3,14.9,30.95,NW,322,9.0,9.0,41,0.00,,,0.00,meteohub,2013-04-22 08:45:00,
2013-04-22 04:50:00,36.5,15.1,30.95,NW,312,5.0,9.0,41,0.00,,,0.00,meteohub,2013-04-22 08:50:00,
2013-04-22 04:55:00,36.5,14.5,30.95,NW,307,8.0,9.0,40,0.00,,,0.00,meteohub,2013-04-22 08:55:00,
2013-04-22 05:01:00,36.7,15.3,30.95,NW,310,6.0,9.0,41,0.00,,,0.00,meteohub,2013-04-22 09:01:00,
2013-04-22 05:06:00,36.5,15.1,30.95,WNW,303,8.0,9.0,41,0.00,,,0.00,meteohub,2013-04-22 09:06:00,
2013-04-22 05:11:00,36.7,14.5,30.95,NW,313,4.0,9.0,40,0.00,,,0.00,meteohub,2013-04-22 09:11:00,
2013-04-22 05:17:00,36.7,15.3,30.95,NW,313,8.0,9.0,41,0.00,,,0.00,meteohub,2013-04-22 09:17:00,
2013-04-22 05:22:00,36.5,15.1,30.95,NW,311,8.0,9.0,41,0.00,,,0.00,meteohub,2013-04-22 09:22:00,
2013-04-22 05:27:00,36.7,15.3,30.95,NW,313,6.0,9.0,41,0.00,,,0.00,meteohub,2013-04-22 09:27:00,
2013-04-22 05:32:00,36.9,15.4,30.97,NW,308,8.0,8.0,41,0.00,,,0.00,meteohub,2013-04-22 09:32:00,
2013-04-22 05:37:00,36.9,15.4,30.97,NW,304,6.0,8.0,41,0.00,,,0.00,meteohub,2013-04-22 09:37:00,
2013-04-22 05:43:00,37.0,15.4,30.97,NW,308,5.0,8.0,41,0.00,,,0.00,meteohub,2013-04-22 09:43:00,
2013-04-22 05:48:00,37.0,15.4,30.97,NW,314,6.0,8.0,41,0.00,,,0.00,meteohub,2013-04-22 09:48:00,
2013-04-22 05:53:00,37.2,16.2,30.97,NW,314,6.0,8.0,42,0.00,,,0.00,meteohub,2013-04-22 09:53:00,
2013-04-22 05:59:00,37.2,16.2,30.97,WNW,295,8.0,8.0,42,0.00,,,0.00,meteohub,2013-04-22 09:59:00,
2013-04-22 06:04:00,37.2,16.2,30.97,WNW,298,5.0,8.0,42,0.00,,,0.00,meteohub,2013-04-22 10:04:00,
2013-04-22 06:09:00,37.4,16.3,30.97,NW,318,6.0,8.0,42,0.00,,,0.00,meteohub,2013-04-22 10:09:00,
2013-04-22 06:15:00,37.6,16.5,30.97,NW,316,8.0,8.0,42,0.00,,,0.00,meteohub,2013-04-22 10:15:00,
2013-04-22 06:20:00,37.9,17.4,30.97,NW,313,6.0,8.0,43,0.00,,,0.00,meteohub,2013-04-22 10:20:00,
2013-04-22 06:25:00,38.1,17.6,30.97,NW,308,7.0,9.0,43,0.00,,,0.00,meteohub,2013-04-22 10:25:00,
2013-04-22 06:31:00,38.3,17.8,30.97,NW,316,5.0,9.0,43,0.00,,,0.00,meteohub,2013-04-22 10:31:00,
2013-04-22 06:36:00,38.7,18.1,30.97,NW,321,6.0,9.0,43,0.00,,,0.00,meteohub,2013-04-22 10:36:00,
2013-04-22 06:41:00,39.0,18.5,30.97,NW,326,4.0,9.0,43,0.00,,,0.00,meteohub,2013-04-22 10:41:00,
2013-04-22 06:47:00,39.2,18.0,30.97,NNW,339,3.0,9.0,42,0.00,,,0.00,meteohub,2013-04-22 10:47:00,
2013-04-22 06:52:00,39.4,18.1,30.97,NW,312,5.0,9.0,42,0.00,,,0.00,meteohub,2013-04-22 10:52:00,
2013-04-22 06:57:00,39.7,18.0,30.97,NW,313,9.0,9.0,41,0.00,,,0.00,meteohub,2013-04-22 10:57:00,
2013-04-22 07:02:00,40.3,18.5,30.97,WNW,301,6.0,9.0,41,0.00,,,0.00,meteohub,2013-04-22 11:02:00,
2013-04-22 07:07:00,40.6,18.1,30.97,NNW,348,4.0,9.0,40,0.00,,,0.00,meteohub,2013-04-22 11:07:00,
2013-04-22 07:12:00,40.8,17.8,30.97,NW,317,5.0,9.0,39,0.00,,,0.00,meteohub,2013-04-22 11:12:00,
2013-04-22 07:18:00,41.0,16.7,30.97,NW,304,5.0,11.0,37,0.00,,,0.00,meteohub,2013-04-22 11:18:00,
2013-04-22 07:23:00,41.4,16.3,30.97,NW,321,8.0,11.0,36,0.00,,,0.00,meteohub,2013-04-22 11:23:00,
2013-04-22 07:28:00,41.7,16.7,30.97,NNW,331,6.0,11.0,36,0.00,,,0.00,meteohub,2013-04-22 11:28:00,
2013-04-22 07:34:00,41.9,15.6,31.00,NNW,346,6.0,10.0,34,0.00,,,0.00,meteohub,2013-04-22 11:34:00,
2013-04-22 07:39:00,42.3,14.5,31.00,North,353,8.0,10.0,32,0.00,,,0.00,meteohub,2013-04-22 11:39:00,
2013-04-22 07:44:00,42.8,13.5,31.00,North,353,11.0,11.0,30,0.00,,,0.00,meteohub,2013-04-22 11:44:00,
2013-04-22 07:49:00,43.3,9.9,31.00,North,353,11.0,12.0,25,0.00,,,0.00,meteohub,2013-04-22 11:49:00,
2013-04-22 07:55:00,43.7,3.0,31.00,NNW,329,20.0,20.0,18,0.00,,,0.00,meteohub,2013-04-22 11:55:00,
2013-04-22 08:00:00,43.9,-0.8,30.97,North,2,15.0,15.0,15,0.00,,,0.00,meteohub,2013-04-22 12:00:00,
2013-04-22 08:06:00,44.2,-3.5,30.97,NNE,17,10.0,20.0,13,0.00,,,0.00,meteohub,2013-04-22 12:06:00,
2013-04-22 08:11:00,44.4,-3.5,30.97,NNW,348,8.0,20.0,13,0.00,,,0.00,meteohub,2013-04-22 12:11:00,
2013-04-22 08:16:00,44.8,-4.7,30.97,NNW,342,11.0,20.0,12,0.00,,,0.00,meteohub,2013-04-22 12:16:00,
2013-04-22 08:22:00,45.1,-8.3,30.97,NNW,334,15.0,18.0,10,0.00,,,0.00,meteohub,2013-04-22 12:22:00,
2013-04-22 08:27:00,45.3,-8.1,30.97,NNW,345,13.0,18.0,10,0.00,,,0.00,meteohub,2013-04-22 12:27:00,
2013-04-22 08:32:00,45.7,-7.8,30.97,NNW,337,13.0,18.0,10,0.00,,,0.00,meteohub,2013-04-22 12:32:00,
2013-04-22 08:37:00,45.9,-7.6,30.97,North,353,17.0,22.0,10,0.00,,,0.00,meteohub,2013-04-22 12:37:00,
2013-04-22 08:42:00,45.9,-9.8,30.97,NNW,339,15.0,22.0,9,0.00,,,0.00,meteohub,2013-04-22 12:42:00,
2013-04-22 08:47:00,46.0,-9.8,30.97,NNW,338,13.0,22.0,9,0.00,,,0.00,meteohub,2013-04-22 12:47:00,
2013-04-22 08:52:00,46.6,-11.7,30.97,NNW,341,11.0,23.0,8,0.00,,,0.00,meteohub,2013-04-22 12:52:00,
2013-04-22 08:57:00,46.9,-11.4,30.97,North,10,12.0,23.0,8,0.00,,,0.00,meteohub,2013-04-22 12:57:00,
2013-04-22 09:02:00,46.9,-11.4,30.97,NW,326,20.0,23.0,8,0.00,,,0.00,meteohub,2013-04-22 13:02:00,
2013-04-22 09:07:00,47.7,-10.8,30.97,North,350,11.0,23.0,8,0.00,,,0.00,meteohub,2013-04-22 13:07:00,
2013-04-22 09:12:00,47.5,-11.0,30.97,NNW,330,17.0,20.0,8,0.00,,,0.00,meteohub,2013-04-22 13:12:00,
2013-04-22 09:17:00,47.3,-11.2,30.97,North,0,13.0,20.0,8,0.00,,,0.00,meteohub,2013-04-22 13:17:00,
2013-04-22 09:22:00,47.3,-11.2,30.97,NNW,341,15.0,23.0,8,0.00,,,0.00,meteohub,2013-04-22 13:22:00,
2013-04-22 09:27:00,47.7,-10.8,30.97,North,9,20.0,23.0,8,0.00,,,0.00,meteohub,2013-04-22 13:27:00,
2013-04-22 09:32:00,47.7,-10.8,31.00,NNW,338,10.0,23.0,8,0.00,,,0.00,meteohub,2013-04-22 13:32:00,
2013-04-22 09:37:00,48.2,-10.5,31.00,North,353,17.0,23.0,8,0.00,,,0.00,meteohub,2013-04-22 13:37:00,
2013-04-22 09:43:00,48.0,-10.5,31.00,North,357,17.0,22.0,8,0.00,,,0.00,meteohub,2013-04-22 13:43:00,
2013-04-22 09:48:00,48.4,-10.3,31.00,NNW,328,15.0,22.0,8,0.00,,,0.00,meteohub,2013-04-22 13:48:00,
2013-04-22 09:53:00,48.9,-7.4,31.00,North,0,8.0,21.0,9,0.00,,,0.00,meteohub,2013-04-22 13:53:00,
2013-04-22 09:58:00,48.7,-9.9,31.00,North,4,18.0,21.0,8,0.00,,,0.00,meteohub,2013-04-22 13:58:00,
2013-04-22 10:04:00,49.1,-9.8,30.97,North,1,10.0,21.0,8,0.00,,,0.00,meteohub,2013-04-22 14:04:00,
2013-04-22 10:09:00,48.9,-9.9,30.97,North,6,22.0,22.0,8,0.00,,,0.00,meteohub,2013-04-22 14:09:00,
2013-04-22 10:15:00,48.7,-9.9,31.00,NNE,14,19.0,25.0,8,0.00,,,0.00,meteohub,2013-04-22 14:15:00,
2013-04-22 10:20:00,48.7,-9.9,31.00,NNE,21,11.0,25.0,8,0.00,,,0.00,meteohub,2013-04-22 14:20:00,
2013-04-22 10:25:00,48.7,-9.9,31.00,North,11,22.0,25.0,8,0.00,,,0.00,meteohub,2013-04-22 14:25:00,
2013-04-22 10:30:00,48.9,-9.9,31.00,NNE,27,19.0,25.0,8,0.00,,,0.00,meteohub,2013-04-22 14:30:00,
2013-04-22 10:36:00,50.0,-9.0,31.00,NNW,327,11.0,25.0,8,0.00,,,0.00,meteohub,2013-04-22 14:36:00,
2013-04-22 10:41:00,50.5,-8.7,31.00,North,357,12.0,22.0,8,0.00,,,0.00,meteohub,2013-04-22 14:41:00,
2013-04-22 10:46:00,50.7,-8.5,31.00,NNW,348,10.0,22.0,8,0.00,,,0.00,meteohub,2013-04-22 14:46:00,
2013-04-22 10:52:00,51.6,-7.8,31.00,North,357,8.0,22.0,8,0.00,,,0.00,meteohub,2013-04-22 14:52:00,
2013-04-22 10:57:00,52.5,-9.9,31.00,North,9,10.0,17.0,7,0.00,,,0.00,meteohub,2013-04-22 14:57:00,
2013-04-22 11:02:00,52.0,-10.3,30.97,North,3,10.0,17.0,7,0.00,,,0.00,meteohub,2013-04-22 15:02:00,
2013-04-22 11:07:00,51.4,-8.0,30.97,North,3,11.0,17.0,8,0.00,,,0.00,meteohub,2013-04-22 15:07:00,
2013-04-22 11:12:00,51.6,-7.8,30.97,NNE,16,13.0,22.0,8,0.00,,,0.00,meteohub,2013-04-22 15:12:00,
2013-04-22 11:17:00,51.3,-8.1,30.97,NNE,17,8.0,22.0,8,0.00,,,0.00,meteohub,2013-04-22 15:17:00,
2013-04-22 11:22:00,51.8,-10.5,30.97,NNE,13,17.0,20.0,7,0.00,,,0.00,meteohub,2013-04-22 15:22:00,
2013-04-22 11:28:00,53.1,-9.4,30.97,North,353,11.0,20.0,7,0.00,,,0.00,meteohub,2013-04-22 15:28:00,
2013-04-22 11:33:00,53.1,-9.4,30.97,NW,318,15.0,20.0,7,0.00,,,0.00,meteohub,2013-04-22 15:33:00,
2013-04-22 11:39:00,53.4,-9.2,30.97,North,353,13.0,20.0,7,0.00,,,0.00,meteohub,2013-04-22 15:39:00,
2013-04-22 11:44:00,53.6,-9.0,30.97,NNW,341,11.0,20.0,7,0.00,,,0.00,meteohub,2013-04-22 15:44:00,
2013-04-22 11:49:00,53.6,-9.0,30.97,North,353,9.0,20.0,7,0.00,,,0.00,meteohub,2013-04-22 15:49:00,
2013-04-22 11:55:00,53.8,-9.0,30.97,North,6,11.0,19.0,7,0.00,,,0.00,meteohub,2013-04-22 15:55:00,
2013-04-22 12:00:00,53.1,-9.4,30.97,North,0,13.0,19.0,7,0.00,,,0.00,meteohub,2013-04-22 16:00:00,
2013-04-22 12:05:00,54.0,-8.9,30.97,North,350,15.0,19.0,7,0.00,,,0.00,meteohub,2013-04-22 16:05:00,
2013-04-22 12:11:00,54.0,-8.9,30.97,North,6,11.0,19.0,7,0.00,,,0.00,meteohub,2013-04-22 16:11:00,
2013-04-22 12:16:00,54.1,-8.7,30.97,NNE,30,13.0,22.0,7,0.00,,,0.00,meteohub,2013-04-22 16:16:00,
2013-04-22 12:21:00,54.0,-8.9,30.97,NNW,341,16.0,22.0,7,0.00,,,0.00,meteohub,2013-04-22 16:21:00,
2013-04-22 12:27:00,54.0,-8.9,30.97,NNW,338,16.0,22.0,7,0.00,,,0.00,meteohub,2013-04-22 16:27:00,
2013-04-22 12:32:00,53.6,-9.0,30.97,NNE,30,19.0,22.0,7,0.00,,,0.00,meteohub,2013-04-22 16:32:00,
2013-04-22 12:37:00,54.0,-6.2,30.97,NNE,18,13.0,24.0,8,0.00,,,0.00,meteohub,2013-04-22 16:37:00,
2013-04-22 12:42:00,54.0,-6.2,30.97,North,1,18.0,24.0,8,0.00,,,0.00,meteohub,2013-04-22 16:42:00,
2013-04-22 12:47:00,53.8,-6.2,30.97,North,0,18.0,24.0,8,0.00,,,0.00,meteohub,2013-04-22 16:47:00,
2013-04-22 12:52:00,53.4,-6.5,30.97,NNW,345,13.0,26.0,8,0.00,,,0.00,meteohub,2013-04-22 16:52:00,
2013-04-22 12:58:00,52.2,-7.4,30.97,North,1,21.0,26.0,8,0.00,,,0.00,meteohub,2013-04-22 16:58:00,
2013-04-22 13:03:00,51.6,-5.4,30.97,NE,40,15.0,26.0,9,0.00,,,0.00,meteohub,2013-04-22 17:03:00,
2013-04-22 13:08:00,51.4,-5.6,30.97,North,10,13.0,26.0,9,0.00,,,0.00,meteohub,2013-04-22 17:08:00,
2013-04-22 13:14:00,50.9,-6.0,30.97,NNE,16,17.0,25.0,9,0.00,,,0.00,meteohub,2013-04-22 17:14:00,
2013-04-22 13:19:00,51.3,-5.6,30.97,North,7,21.0,25.0,9,0.00,,,0.00,meteohub,2013-04-22 17:19:00,
2013-04-22 13:24:00,50.5,-6.2,30.97,North,357,21.0,25.0,9,0.00,,,0.00,meteohub,2013-04-22 17:24:00,
2013-04-22 13:30:00,50.5,-6.2,30.97,NE,38,11.0,23.0,9,0.00,,,0.00,meteohub,2013-04-22 17:30:00,
2013-04-22 13:35:00,50.2,-6.5,30.97,NNE,24,13.0,23.0,9,0.00,,,0.00,meteohub,2013-04-22 17:35:00,
2013-04-22 13:40:00,50.0,-6.7,30.97,North,10,16.0,23.0,9,0.00,,,0.00,meteohub,2013-04-22 17:40:00,
2013-04-22 13:46:00,50.0,-6.7,30.95,North,357,15.0,23.0,9,0.00,,,0.00,meteohub,2013-04-22 17:46:00,
2013-04-22 13:51:00,50.0,-6.7,30.95,NNE,18,13.0,23.0,9,0.00,,,0.00,meteohub,2013-04-22 17:51:00,
2013-04-22 13:56:00,49.1,-7.4,30.95,North,4,17.0,23.0,9,0.00,,,0.00,meteohub,2013-04-22 17:56:00,
2013-04-22 14:01:00,48.9,-7.4,30.97,North,357,13.0,23.0,9,0.00,,,0.00,meteohub,2013-04-22 18:01:00,
2013-04-22 14:07:00,48.9,-7.4,30.97,NNE,18,15.0,23.0,9,0.00,,,0.00,meteohub,2013-04-22 18:07:00,
2013-04-22 14:12:00,48.9,-3.3,30.97,North,7,16.0,23.0,11,0.00,,,0.00,meteohub,2013-04-22 18:12:00,
2013-04-22 14:17:00,48.6,-7.8,30.97,NNE,18,15.0,20.0,9,0.00,,,0.00,meteohub,2013-04-22 18:17:00,
2013-04-22 14:22:00,48.0,-8.1,30.97,North,353,22.0,22.0,9,0.00,,,0.00,meteohub,2013-04-22 18:22:00,
2013-04-22 14:27:00,48.2,-3.8,30.97,North,357,13.0,22.0,11,0.00,,,0.00,meteohub,2013-04-22 18:27:00,
2013-04-22 14:32:00,47.8,-8.3,30.95,North,353,15.0,22.0,9,0.00,,,0.00,meteohub,2013-04-22 18:32:00,
2013-04-22 14:37:00,47.5,-8.7,30.95,North,8,20.0,22.0,9,0.00,,,0.00,meteohub,2013-04-22 18:37:00,
2013-04-22 14:42:00,47.3,-8.7,30.95,NNW,348,17.0,22.0,9,0.00,,,0.00,meteohub,2013-04-22 18:42:00,
2013-04-22 14:47:00,47.1,-8.9,30.95,NNW,348,20.0,23.0,9,0.00,,,0.00,meteohub,2013-04-22 18:47:00,
2013-04-22 14:52:00,46.9,-9.0,30.95,North,2,15.0,23.0,9,0.00,,,0.00,meteohub,2013-04-22 18:52:00,
2013-04-22 14:58:00,46.9,-3.1,30.95,North,3,11.0,26.0,12,0.00,,,0.00,meteohub,2013-04-22 18:58:00,
2013-04-22 15:03:00,47.1,-8.9,30.95,North,1,14.0,26.0,9,0.00,,,0.00,meteohub,2013-04-22 19:03:00,
2013-04-22 15:08:00,47.1,-2.9,30.95,NNW,335,13.0,23.0,12,0.00,,,0.00,meteohub,2013-04-22 19:08:00,
2013-04-22 15:14:00,47.3,-8.7,30.95,North,357,11.0,21.0,9,0.00,,,0.00,meteohub,2013-04-22 19:14:00,
2013-04-22 15:19:00,47.1,-8.9,30.95,North,7,13.0,21.0,9,0.00,,,0.00,meteohub,2013-04-22 19:19:00,
2013-04-22 15:24:00,46.9,-3.1,30.95,North,1,21.0,21.0,12,0.00,,,0.00,meteohub,2013-04-22 19:24:00,
2013-04-22 15:29:00,47.1,-2.9,30.95,NNE,33,14.0,24.0,12,0.00,,,0.00,meteohub,2013-04-22 19:29:00,
2013-04-22 15:35:00,46.9,-3.1,30.95,North,353,15.0,24.0,12,0.00,,,0.00,meteohub,2013-04-22 19:35:00,
2013-04-22 15:40:00,46.9,-3.1,30.95,NNE,17,11.0,21.0,12,0.00,,,0.00,meteohub,2013-04-22 19:40:00,
2013-04-22 15:45:00,47.1,-2.9,30.95,North,4,12.0,18.0,12,0.00,,,0.00,meteohub,2013-04-22 19:45:00,
2013-04-22 15:50:00,46.9,-3.1,30.95,North,357,15.0,18.0,12,0.00,,,0.00,meteohub,2013-04-22 19:50:00,
2013-04-22 15:56:00,46.8,0.0,30.95,North,8,12.0,20.0,14,0.00,,,0.00,meteohub,2013-04-22 19:56:00,
2013-04-22 16:01:00,46.6,0.0,30.95,NNE,19,11.0,20.0,14,0.00,,,0.00,meteohub,2013-04-22 20:01:00,
2013-04-22 16:06:00,46.4,-3.5,30.95,NNW,346,12.0,20.0,12,0.00,,,0.00,meteohub,2013-04-22 20:06:00,
2013-04-22 16:11:00,46.4,-3.5,30.95,NNW,342,14.0,21.0,12,0.00,,,0.00,meteohub,2013-04-22 20:11:00,
2013-04-22 16:17:00,46.0,-7.6,30.95,North,353,13.0,21.0,10,0.00,,,0.00,meteohub,2013-04-22 20:17:00,
2013-04-22 16:22:00,46.0,-7.6,30.95,North,357,15.0,21.0,10,0.00,,,0.00,meteohub,2013-04-22 20:22:00,
2013-04-22 16:27:00,46.2,-3.6,30.95,North,2,15.0,23.0,12,0.00,,,0.00,meteohub,2013-04-22 20:27:00,
2013-04-22 16:32:00,46.0,-3.8,30.95,North,353,10.0,23.0,12,0.00,,,0.00,meteohub,2013-04-22 20:32:00,
2013-04-22 16:37:00,45.9,-4.0,30.95,NNE,17,15.0,23.0,12,0.00,,,0.00,meteohub,2013-04-22 20:37:00,
2013-04-22 16:42:00,45.5,-4.2,30.95,North,1,17.0,18.0,12,0.00,,,0.00,meteohub,2013-04-22 20:42:00,
2013-04-22 16:47:00,45.5,-4.2,30.95,North,6,20.0,20.0,12,0.00,,,0.00,meteohub,2013-04-22 20:47:00,
2013-04-22 16:52:00,45.5,0.5,30.95,NNW,348,12.0,18.0,15,0.00,,,0.00,meteohub,2013-04-22 20:52:00,
2013-04-22 16:57:00,45.1,0.1,30.95,NNW,341,19.0,23.0,15,0.00,,,0.00,meteohub,2013-04-22 20:57:00,
2013-04-22 17:02:00,45.0,-4.5,30.97,North,353,11.0,23.0,12,0.00,,,0.00,meteohub,2013-04-22 21:02:00,
2013-04-22 17:07:00,45.1,-4.5,30.97,NNW,345,15.0,23.0,12,0.00,,,0.00,meteohub,2013-04-22 21:07:00,
2013-04-22 17:12:00,44.8,-4.7,30.97,North,10,11.0,22.0,12,0.00,,,0.00,meteohub,2013-04-22 21:12:00,
2013-04-22 17:17:00,44.6,-4.9,30.97,NNW,348,8.0,22.0,12,0.00,,,0.00,meteohub,2013-04-22 21:17:00,
2013-04-22 17:22:00,44.6,-4.9,30.97,NNW,330,17.0,22.0,12,0.00,,,0.00,meteohub,2013-04-22 21:22:00,
2013-04-22 17:27:00,44.2,-8.9,30.97,North,353,11.0,20.0,10,0.00,,,0.00,meteohub,2013-04-22 21:27:00,
2013-04-22 17:32:00,43.9,-9.2,30.97,NNW,337,10.0,20.0,10,0.00,,,0.00,meteohub,2013-04-22 21:32:00,
2013-04-22 17:37:00,43.9,-9.2,30.97,North,6,8.0,23.0,10,0.00,,,0.00,meteohub,2013-04-22 21:37:00,
2013-04-22 17:42:00,43.9,-9.2,30.97,NNW,346,9.0,23.0,10,0.00,,,0.00,meteohub,2013-04-22 21:42:00,
2013-04-22 17:48:00,43.7,-9.4,30.97,North,349,11.0,18.0,10,0.00,,,0.00,meteohub,2013-04-22 21:48:00,
2013-04-22 17:53:00,43.3,-9.6,30.97,North,357,8.0,18.0,10,0.00,,,0.00,meteohub,2013-04-22 21:53:00,
2013-04-22 17:58:00,43.2,-9.8,30.97,North,353,15.0,20.0,10,0.00,,,0.00,meteohub,2013-04-22 21:58:00,
2013-04-22 18:03:00,43.2,-9.8,30.97,North,357,9.0,20.0,10,0.00,,,0.00,meteohub,2013-04-22 22:03:00,
2013-04-22 18:09:00,43.0,-9.9,30.97,North,9,11.0,17.0,10,0.00,,,0.00,meteohub,2013-04-22 22:09:00,
2013-04-22 18:14:00,42.8,-10.1,30.97,NNW,329,22.0,22.0,10,0.00,,,0.00,meteohub,2013-04-22 22:14:00,
2013-04-22 18:19:00,42.4,-8.3,30.97,North,353,8.0,17.0,11,0.00,,,0.00,meteohub,2013-04-22 22:19:00,
2013-04-22 18:24:00,42.4,-4.9,30.97,NW,326,15.0,22.0,13,0.00,,,0.00,meteohub,2013-04-22 22:24:00,
2013-04-22 18:30:00,42.4,-4.9,30.97,NNW,346,8.0,22.0,13,0.00,,,0.00,meteohub,2013-04-22 22:30:00,
2013-04-22 18:35:00,42.4,-4.9,30.97,North,9,8.0,22.0,13,0.00,,,0.00,meteohub,2013-04-22 22:35:00,
2013-04-22 18:40:00,42.3,-5.1,30.97,NNW,332,9.0,17.0,13,0.00,,,0.00,meteohub,2013-04-22 22:40:00,
2013-04-22 18:46:00,42.3,-5.1,30.97,North,11,8.0,17.0,13,0.00,,,0.00,meteohub,2013-04-22 22:46:00,
2013-04-22 18:51:00,42.1,-5.3,30.97,NNW,329,11.0,17.0,13,0.00,,,0.00,meteohub,2013-04-22 22:51:00,
2013-04-22 18:56:00,41.9,-5.4,30.97,North,9,18.0,18.0,13,0.00,,,0.00,meteohub,2013-04-22 22:56:00,
2013-04-22 19:01:00,41.7,-5.6,30.97,North,357,8.0,17.0,13,0.00,,,0.00,meteohub,2013-04-22 23:01:00,
2013-04-22 19:07:00,41.7,-1.1,30.97,NNW,348,11.0,18.0,16,0.00,,,0.00,meteohub,2013-04-22 23:07:00,
2013-04-22 19:12:00,41.5,-1.3,30.97,North,4,11.0,18.0,16,0.00,,,0.00,meteohub,2013-04-22 23:12:00,
2013-04-22 19:17:00,41.5,-1.3,30.97,North,6,15.0,17.0,16,0.00,,,0.00,meteohub,2013-04-22 23:17:00,
2013-04-22 19:22:00,41.5,-1.3,30.97,North,357,9.0,17.0,16,0.00,,,0.00,meteohub,2013-04-22 23:22:00,
2013-04-22 19:27:00,41.5,-1.3,30.97,North,349,17.0,17.0,16,0.00,,,0.00,meteohub,2013-04-22 23:27:00,
2013-04-22 19:32:00,41.4,-1.5,30.97,North,353,10.0,17.0,16,0.00,,,0.00,meteohub,2013-04-22 23:32:00,
2013-04-22 19:37:00,41.4,-1.5,30.97,North,353,7.0,17.0,16,0.00,,,0.00,meteohub,2013-04-22 23:37:00,
2013-04-22 19:43:00,41.2,-1.7,30.97,NNW,341,11.0,17.0,16,0.00,,,0.00,meteohub,2013-04-22 23:43:00,
2013-04-22 19:48:00,41.2,-1.7,30.97,North,353,9.0,17.0,16,0.00,,,0.00,meteohub,2013-04-22 23:48:00,
2013-04-22 19:53:00,41.2,0.9,30.97,NW,315,14.0,17.0,18,0.00,,,0.00,meteohub,2013-04-22 23:53:00,
2013-04-22 19:58:00,41.0,0.7,30.97,NNW,327,13.0,17.0,18,0.00,,,0.00,meteohub,2013-04-22 23:58:00,
2013-04-22 20:04:00,41.0,0.7,30.97,North,349,11.0,17.0,18,0.00,,,0.00,meteohub,2013-04-23 00:04:00,
2013-04-22 20:09:00,41.0,0.7,30.97,NNW,342,11.0,18.0,18,0.00,,,0.00,meteohub,2013-04-23 00:09:00,
2013-04-22 20:14:00,41.0,0.7,31.00,NNW,346,15.0,18.0,18,0.00,,,0.00,meteohub,2013-04-23 00:14:00,
2013-04-22 20:19:00,41.0,0.7,31.00,NNW,336,12.0,18.0,18,0.00,,,0.00,meteohub,2013-04-23 00:19:00,
2013-04-22 20:25:00,41.0,0.7,31.00,NNW,344,13.0,18.0,18,0.00,,,0.00,meteohub,2013-04-23 00:25:00,
2013-04-22 20:30:00,41.0,4.1,31.00,North,350,8.0,17.0,21,0.00,,,0.00,meteohub,2013-04-23 00:30:00,
2013-04-22 20:35:00,41.0,4.1,31.00,NNW,346,10.0,17.0,21,0.00,,,0.00,meteohub,2013-04-23 00:35:00,
2013-04-22 20:40:00,41.0,4.1,31.00,North,353,13.0,19.0,21,0.00,,,0.00,meteohub,2013-04-23 00:40:00,
2013-04-22 20:46:00,41.0,4.1,31.00,North,6,12.0,19.0,21,0.00,,,0.00,meteohub,2013-04-23 00:46:00,
2013-04-22 20:51:00,41.0,4.1,31.00,NNW,348,11.0,19.0,21,0.00,,,0.00,meteohub,2013-04-23 00:51:00,
2013-04-22 20:56:00,41.0,4.1,31.00,NNW,340,8.0,17.0,21,0.00,,,0.00,meteohub,2013-04-23 00:56:00,
2013-04-22 21:01:00,41.0,6.1,31.00,North,357,9.0,17.0,23,0.00,,,0.00,meteohub,2013-04-23 01:01:00,
2013-04-22 21:07:00,41.0,6.1,31.00,NNW,338,10.0,17.0,23,0.00,,,0.00,meteohub,2013-04-23 01:07:00,
2013-04-22 21:12:00,41.0,4.1,31.00,NNW,345,11.0,15.0,21,0.00,,,0.00,meteohub,2013-04-23 01:12:00,
2013-04-22 21:17:00,41.0,4.1,31.00,North,10,13.0,15.0,21,0.00,,,0.00,meteohub,2013-04-23 01:17:00,
2013-04-22 21:22:00,41.0,4.1,31.00,NNW,338,9.0,17.0,21,0.00,,,0.00,meteohub,2013-04-23 01:22:00,
2013-04-22 21:27:00,41.0,6.1,31.00,North,357,15.0,18.0,23,0.00,,,0.00,meteohub,2013-04-23 01:27:00,
2013-04-22 21:32:00,41.0,6.1,31.00,NNW,338,10.0,18.0,23,0.00,,,0.00,meteohub,2013-04-23 01:32:00,
2013-04-22 21:37:00,41.0,6.1,31.00,NNW,345,8.0,18.0,23,0.00,,,0.00,meteohub,2013-04-23 01:37:00,
2013-04-22 21:42:00,41.0,8.8,31.00,NNW,335,14.0,15.0,26,0.00,,,0.00,meteohub,2013-04-23 01:42:00,
2013-04-22 21:47:00,41.0,8.8,31.00,North,3,11.0,16.0,26,0.00,,,0.00,meteohub,2013-04-23 01:47:00,
2013-04-22 21:52:00,41.0,8.8,31.00,NNW,338,8.0,16.0,26,0.00,,,0.00,meteohub,2013-04-23 01:52:00,
2013-04-22 21:57:00,41.0,8.8,31.00,North,357,10.0,16.0,26,0.00,,,0.00,meteohub,2013-04-23 01:57:00,
2013-04-22 22:02:00,41.0,8.8,30.97,NNW,344,8.0,16.0,26,0.00,,,0.00,meteohub,2013-04-23 02:02:00,
2013-04-22 22:07:00,40.8,8.6,30.97,NNW,342,8.0,16.0,26,0.00,,,0.00,meteohub,2013-04-23 02:07:00,
2013-04-22 22:12:00,40.8,8.6,30.97,NNW,333,10.0,17.0,26,0.00,,,0.00,meteohub,2013-04-23 02:12:00,
2013-04-22 22:17:00,41.0,8.8,30.97,NNW,337,12.0,17.0,26,0.00,,,0.00,meteohub,2013-04-23 02:17:00,
2013-04-22 22:22:00,41.0,8.8,30.97,NW,326,10.0,17.0,26,0.00,,,0.00,meteohub,2013-04-23 02:22:00,
2013-04-22 22:27:00,41.0,8.8,30.97,NNW,342,8.0,16.0,26,0.00,,,0.00,meteohub,2013-04-23 02:27:00,
2013-04-22 22:32:00,41.0,10.4,30.97,NNW,334,8.0,16.0,28,0.00,,,0.00,meteohub,2013-04-23 02:32:00,
2013-04-22 22:38:00,41.0,10.4,30.97,North,357,11.0,15.0,28,0.00,,,0.00,meteohub,2013-04-23 02:38:00,
2013-04-22 22:43:00,41.0,10.4,30.97,NNW,335,10.0,15.0,28,0.00,,,0.00,meteohub,2013-04-23 02:43:00,
2013-04-22 22:48:00,41.0,10.4,30.97,North,0,6.0,15.0,28,0.00,,,0.00,meteohub,2013-04-23 02:48:00,
2013-04-22 22:53:00,41.0,11.1,30.97,NNW,341,11.0,15.0,29,0.00,,,0.00,meteohub,2013-04-23 02:53:00,
2013-04-22 22:59:00,41.2,11.3,30.97,NW,321,6.0,15.0,29,0.00,,,0.00,meteohub,2013-04-23 02:59:00,
2013-04-22 23:04:00,41.2,11.3,30.97,NNE,12,9.0,15.0,29,0.00,,,0.00,meteohub,2013-04-23 03:04:00,
2013-04-22 23:09:00,41.2,11.3,30.97,North,0,6.0,15.0,29,0.00,,,0.00,meteohub,2013-04-23 03:09:00,
2013-04-22 23:14:00,41.4,11.5,30.97,NNW,346,6.0,15.0,29,0.00,,,0.00,meteohub,2013-04-23 03:14:00,
2013-04-22 23:20:00,41.4,11.5,30.97,NNW,329,14.0,15.0,29,0.00,,,0.00,meteohub,2013-04-23 03:20:00,
2013-04-22 23:25:00,41.5,12.4,30.97,North,11,8.0,15.0,30,0.00,,,0.00,meteohub,2013-04-23 03:25:00,
2013-04-22 23:30:00,41.5,12.4,30.97,NW,326,8.0,17.0,30,0.00,,,0.00,meteohub,2013-04-23 03:30:00,
2013-04-22 23:36:00,41.7,12.6,30.97,NNW,334,6.0,17.0,30,0.00,,,0.00,meteohub,2013-04-23 03:36:00,
2013-04-22 23:41:00,41.7,13.3,30.97,NNW,330,8.0,13.0,31,0.00,,,0.00,meteohub,2013-04-23 03:41:00,
2013-04-22 23:46:00,41.9,13.5,30.97,NNW,334,10.0,13.0,31,0.00,,,0.00,meteohub,2013-04-23 03:46:00,
2013-04-22 23:51:00,41.9,13.5,30.97,NNW,346,6.0,13.0,31,0.00,,,0.00,meteohub,2013-04-23 03:51:00,
2013-04-22 23:57:00,42.1,13.6,30.97,NNW,331,8.0,13.0,31,0.00,,,0.00,meteohub,2013-04-23 03:57:00,